{"data":{"norad_id":67582,"epoch":"2026-05-25T03:50:15.353088Z","epoch_age_seconds":61397,"freshness":"FRESH","line1":"1 67582U 26016X   26145.15989992  .00019482  00000+0  60414-3 0  9994","line2":"2 67582  97.2847 205.4943 0000681 106.9854 253.1464 15.33450493 18586","mean_motion":15.33450493,"eccentricity":6.81e-5,"inclination_deg":97.2847,"raan_deg":205.4943,"arg_perigee_deg":106.9854,"mean_anomaly_deg":253.1464,"bstar":0.00060414,"rev_number":1858,"period_min":93.905868273766,"perigee_km":465.06077771667,"apogee_km":465.99288473048,"semimajor_km":6843.6638312236,"source":"CELESTRAK","updated_at":"2026-05-25T13:38:21.617841Z"}}